Regional Weather Roundup
Issued by NWS

Home | Current Version | Previous Version | Text Only | Print | Product List | Glossary Off
Versions: 1 2 3 4 5 6 7 8 9 10 11 12 13 14 15 16 17 18 19 20 21 22 23 24 25 26 27 28 29 30 31 32 33 34 35 36 37 38 39 40 41 42 43 44 45 46 47 48 49 50

000
ASUS45 KCYS 172010
RWRWY

WYOMING REGIONAL WEATHER ROUNDUP
NATIONAL WEATHER SERVICE CHEYENNE WY
200 PM MDT FRI APR 17 2015

NOTE:  "FAIR" INDICATES FEW OR NO CLOUDS BELOW 12,000 FEET
WITH NO SIGNIFICANT WEATHER AND/OR OBSTRUCTIONS TO VISIBILITY.

WYZ001-172100-
YELLOWSTONE NATIONAL PARK

CITY           SKY/WX    TMP DP  RH WIND       PRES   REMARKS
LK YELLOWSTONE   N/A     49  14  24 VRB5      30.20F
W YELLOWSTONE  NOT AVBL

$$
WYZ002>013-054>058-071-098>099-172100-
NORTHERN WYOMING

CITY           SKY/WX    TMP DP  RH WIND       PRES   REMARKS
JACKSON        FAIR      57  12  17 N13       30.10F
CODY           FAIR      55  28  35 NW9       30.16F
GREYBULL       FAIR      60  28  29 VRB5      30.13F
WORLAND        FAIR      57  29  34 VRB5      30.14F
SHERIDAN       FAIR      60  30  32 E5        30.15F
BUFFALO        FAIR      57  29  34 VRB3      30.16F
GILLETTE       FAIR      59  34  39 NE8       30.14F
HULETT         FAIR      59  32  36 NE7       30.16F
NEWCASTLE      FAIR      52  32  46 S8        30.16S

$$
WYZ014>020-022>026-101>103-172100-
CENTRAL WYOMING

CITY           SKY/WX    TMP DP  RH WIND       PRES   REMARKS
BIG PINEY      FAIR      58  17  20 NE6G17    30.09F
PINEDALE       FAIR      55  18  22 NE14G20   30.11S
DUBOIS         FAIR      52  21  30 SE12      30.14F
LANDER         FAIR      52  29  41 N9        30.14F
RIVERTON       FAIR      54  26  34 N8G18     30.15F
CASPER         LGT RAIN  38  35  89 SE13      30.16F FOG     WCI  30
DOUGLAS        RAIN      40  37  89 NE6       30.18S FOG

$$
WYZ021-027>030-104>119-172100-
SOUTHERN WYOMING

CITY           SKY/WX    TMP DP  RH WIND       PRES   REMARKS
EVANSTON       CLOUDY    41  31  67 NE5       30.14F
KEMMERER       MOCLDY    46  32  57 E9        30.14F
FORT BRIDGER   DRIZZLE   39  37  93 MISG      30.17F
ROCK SPRINGS   LGT RAIN  37  33  85 NE26G37   30.11F WCI  25
DIXON          CLOUDY    46  33  59 N28G36    30.03F
RAWLINS        FLURRIES  34  32  92 N16G23    30.10F WCI  24
SARATOGA       CLOUDY    36  32  87 N13G23    30.07S WCI  27
LARAMIE        FAIR      35  29  78 NE28G35   30.00F WCI  22
CHEYENNE       LGT SNOW  36  34  92 N24G37    29.98F FOG     WCI  24
TORRINGTON     LGT RAIN  45  42  89 NE24G37   30.05F FOG
PINE BLUFFS    LGT RAIN  46  45  93 E17G26    30.01S

$$


USA.gov is the U.S. government's official web portal to all federal, state and local government web resources and services.